This is the latest recevied weather packets stored in our database for station/object WX4ET. If no packets are shown the sender has not sent any weather packets the latest 10 day(s).
| Time | Temp. | Humidity | Pressure | Rain* | Wind** | Luminosity | Snow |
|---|---|---|---|---|---|---|---|
| 1778065315 | 15° C | 99% | 1005.4 hPa | 0 mm | - | 6 W/m² | - |
| 1778065011 | 15° C | 99% | 1005.4 hPa | 0 mm | - | 3 W/m² | - |
| 1778064708 | 15° C | 98% | 1005.4 hPa | 1.27 mm | - | 2 W/m² | - |
| 1778064407 | 15° C | 97% | 1005.4 hPa | 3.05 mm | - | 0 W/m² | - |
| 1778064104 | 15° C | 97% | 1005.3 hPa | 4.32 mm | - | 0 W/m² | - |
| 1778063801 | 15.56° C | 95% | 1005.4 hPa | 3.05 mm | - | 0 W/m² | - |
| 1778063497 | 15.56° C | 93% | 1005.4 hPa | 0 mm | - | 0 W/m² | - |
| 1778063196 | 15.56° C | 94% | 1005.1 hPa | 0 mm | - | 0 W/m² | - |
| 1778062893 | 15.56° C | 95% | 1005.5 hPa | 0 mm | - | 0 W/m² | - |
| 1778062589 | 15.56° C | 97% | 1005.4 hPa | 0 mm | - | 0 W/m² | - |
| 1778062286 | 15° C | 98% | 1004.9 hPa | 0 mm | - | 0 W/m² | - |
| 1778061985 | 15° C | 98% | 1004.9 hPa | 0 mm | - | 0 W/m² | - |
| 1778061682 | 15° C | 98% | 1004.6 hPa | 0 mm | - | 0 W/m² | - |
| 1778061381 | 15° C | 98% | 1004.7 hPa | 0 mm | - | 0 W/m² | - |
| 1778061077 | 15° C | 98% | 1004.4 hPa | 0 mm | - | 0 W/m² | - |
| 1778060775 | 15° C | 98% | 1004.7 hPa | 0 mm | - | 0 W/m² | - |
| 1778060472 | 15° C | 98% | 1004.5 hPa | 0 mm | - | 0 W/m² | - |
| 1778060171 | 15° C | 97% | 1004.5 hPa | 0 mm | - | 0 W/m² | - |
| 1778059868 | 15.56° C | 97% | 1004.6 hPa | 0 mm | - | 0 W/m² | - |
| 1778059565 | 15° C | 97% | 1004.6 hPa | 0 mm | - | 0 W/m² | - |
| 1778059262 | 15° C | 98% | 1004.5 hPa | 0 mm | - | 0 W/m² | - |
| 1778058960 | 15° C | 98% | 1004.6 hPa | 0 mm | - | 0 W/m² | - |
| 1778058658 | 15.56° C | 97% | 1004.3 hPa | 0 mm | - | 0 W/m² | - |
| 1778058355 | 15° C | 97% | 1004.4 hPa | 0 mm | - | 0 W/m² | - |
| 1778058051 | 15° C | 98% | 1004.4 hPa | 0 mm | - | 0 W/m² | - |
* Rain latest hour (hover to see other rain measurements)
** Current wind speed in m/s (hover to see current wind gust speed)